Tracking 25711 objects as of 22-May-2022
HD Live streaming from Space Station
objects crossing your sky now

HELIOS 1A

Track HELIOS 1A now!
10-day predictions
HELIOS 1A is classified as:


NORAD ID: 23605
Int'l Code: 1995-033A
Perigee: 588.8 km
Apogee: 608.8 km
Inclination: 98.2 °
Period: 96.5 minutes
Semi major axis: 6969 km
RCS: Unknown
Launch date: July 7, 1995
Source: France (FR)
Launch site: FRENCH GUIANA (FRGUI)

Optical reconnaissance; cannot see through clouds or at night.
aabbcc
Your satellite tracking list
Your tracking list is empty




NASA's NSSDC Master Catalog

Two Line Element Set (TLE):
1 23605U 95033A   22113.05253811 0.00001500  00000-0  14787-3 0    09
2 23605  98.2318 253.6983 0014308  22.6472 337.3526 14.92012563    06
Source of the keplerian elements: McCants